• In Portugal
  • List of Countries
  • For 7 days
  • Water Temperature
  • Satellite Maps
  • Weather Map
  • Weather Widgets
  • user-avatar
    Login

    Hourly Weather Dinagepoor

    Today, 20 July, Friday

    Time Temperature Precipitation Wind Pressure Humidity
    00:00 +35°C° 0 mm 1 mps 745 mmHg 59%
    01:00 +34°C° 0 mm 1 mps 745 mmHg 61%
    02:00 +34°C° 0 mm 1 mps 745 mmHg 62%
    03:00 +34°C° 0 mm 1 mps 745 mmHg 64%
    04:00 +34°C° 0 mm 1 mps 745 mmHg 65%
    05:00 +33°C° 0 mm 1 mps 745 mmHg 66%
    06:00 +33°C° 0 mm 1 mps 745 mmHg 68%
    07:00 +35°C° 0 mm 2 mps 745 mmHg 63%
    08:00 +36°C° 0 mm 2 mps 745 mmHg 59%
    09:00 +38°C° 0 mm 2 mps 745 mmHg 54%
    10:00 +39°C° 0 mm 2 mps 745 mmHg 50%
    11:00 +40°C° 0 mm 2 mps 745 mmHg 47%
    12:00 +42°C° 0 mm 3 mps 745 mmHg 44%
    13:00 +42°C° 0 mm 3 mps 744 mmHg 43%
    14:00 +42°C° 0 mm 3 mps 744 mmHg 42%
    15:00 +42°C° 0 mm 3 mps 743 mmHg 41%
    16:00 +42°C° 0 mm 3 mps 743 mmHg 43%
    17:00 +40°C° 0 mm 3 mps 743 mmHg 46%
    18:00 +39°C° 0 mm 2 mps 743 mmHg 49%
    19:00 +39°C° 0 mm 3 mps 744 mmHg 52%
    20:00 +38°C° 0 mm 3 mps 744 mmHg 55%
    21:00 +37°C° 0 mm 4 mps 745 mmHg 58%
    22:00 +36°C° 0.2 mm 4 mps 745 mmHg 61%
    23:00 +36°C° 0.2 mm 4 mps 745 mmHg 64%

    Tomorrow, 21 July, Saturday

    Time Temperature Precipitation Wind Pressure Humidity
    00:00 +35°C° 0.2 mm 4 mps 745 mmHg 66%
    01:00 +34°C° 0.2 mm 5 mps 745 mmHg 68%
    02:00 +34°C° 0.2 mm 5 mps 745 mmHg 70%
    03:00 +33°C° 0.2 mm 5 mps 745 mmHg 72%
    04:00 +33°C° 0.2 mm 5 mps 746 mmHg 74%
    05:00 +32°C° 0.2 mm 5 mps 746 mmHg 75%
    06:00 +32°C° 0.2 mm 5 mps 746 mmHg 77%
    07:00 +33°C° 0.1 mm 6 mps 746 mmHg 74%
    08:00 +33°C° 0.1 mm 7 mps 746 mmHg 71%
    09:00 +34°C° 0.1 mm 7 mps 746 mmHg 67%
    10:00 +35°C° 0 mm 7 mps 746 mmHg 63%
    11:00 +37°C° 0 mm 8 mps 746 mmHg 59%
    12:00 +38°C° 0 mm 8 mps 746 mmHg 55%
    13:00 +38°C° 0 mm 8 mps 746 mmHg 55%
    14:00 +38°C° 0 mm 8 mps 745 mmHg 55%
    15:00 +38°C° 0 mm 8 mps 745 mmHg 56%
    16:00 +37°C° 0.2 mm 8 mps 745 mmHg 58%
    17:00 +36°C° 0.2 mm 7 mps 744 mmHg 60%
    18:00 +35°C° 0.2 mm 7 mps 744 mmHg 62%
    19:00 +35°C° 0 mm 7 mps 745 mmHg 64%
    20:00 +34°C° 0 mm 7 mps 746 mmHg 66%
    21:00 +33°C° 0 mm 7 mps 746 mmHg 68%
    22:00 +33°C° 0.1 mm 7 mps 746 mmHg 70%
    23:00 +33°C° 0.1 mm 7 mps 746 mmHg 72%

    Day after tomorrow, 22 July, Sunday

    Time Temperature Precipitation Wind Pressure Humidity
    00:00 +32°C° 0.1 mm 8 mps 746 mmHg 74%
    01:00 +32°C° 0.4 mm 8 mps 746 mmHg 76%
    02:00 +30°C° 0.4 mm 7 mps 746 mmHg 78%
    03:00 +30°C° 0.4 mm 7 mps 745 mmHg 80%
    04:00 +30°C° 0.2 mm 7 mps 745 mmHg 80%
    05:00 +30°C° 0.2 mm 7 mps 746 mmHg 80%
    06:00 +30°C° 0.2 mm 7 mps 746 mmHg 80%
    07:00 +31°C° 0 mm 8 mps 746 mmHg 78%
    08:00 +32°C° 0 mm 8 mps 746 mmHg 75%
    09:00 +33°C° 0 mm 8 mps 746 mmHg 73%
    10:00 +33°C° 0.1 mm 8 mps 746 mmHg 71%
    11:00 +34°C° 0.1 mm 8 mps 746 mmHg 68%
    12:00 +34°C° 0.1 mm 8 mps 746 mmHg 66%
    13:00 +35°C° 0.3 mm 8 mps 745 mmHg 64%
    14:00 +37°C° 0.3 mm 8 mps 744 mmHg 61%
    15:00 +38°C° 0.3 mm 8 mps 744 mmHg 58%
    16:00 +37°C° 1 mm 8 mps 744 mmHg 61%
    17:00 +35°C° 1 mm 7 mps 744 mmHg 65%
    18:00 +34°C° 1 mm 7 mps 744 mmHg 68%
    19:00 +34°C° 1.1 mm 6 mps 744 mmHg 71%
    20:00 +33°C° 1.1 mm 6 mps 745 mmHg 74%
    21:00 +32°C° 1.1 mm 5 mps 746 mmHg 78%
    22:00 +32°C° 0.5 mm 5 mps 746 mmHg 79%
    23:00 +32°C° 0.5 mm 5 mps 746 mmHg 80%

    23 July, Monday

    Time Temperature Precipitation Wind Pressure Humidity
    00:00 +32°C° 0.5 mm 5 mps 747 mmHg 80%
    01:00 +32°C° 0.5 mm 5 mps 746 mmHg 82%
    02:00 +30°C° 0.5 mm 4 mps 746 mmHg 83%
    03:00 +30°C° 0.5 mm 4 mps 746 mmHg 84%
    04:00 +30°C° 0.3 mm 4 mps 746 mmHg 84%
    05:00 +30°C° 0.3 mm 4 mps 746 mmHg 84%
    06:00 +29°C° 0.3 mm 4 mps 746 mmHg 85%
    07:00 +30°C° 0.1 mm 5 mps 746 mmHg 81%
    08:00 +32°C° 0.1 mm 5 mps 747 mmHg 77%
    09:00 +33°C° 0.1 mm 5 mps 747 mmHg 73%
    10:00 +34°C° 0.6 mm 6 mps 747 mmHg 69%
    11:00 +35°C° 0.6 mm 6 mps 747 mmHg 65%
    12:00 +36°C° 0.6 mm 6 mps 747 mmHg 61%
    13:00 +36°C° 1.1 mm 6 mps 746 mmHg 61%
    14:00 +36°C° 1.1 mm 6 mps 745 mmHg 60%
    15:00 +36°C° 1.1 mm 6 mps 745 mmHg 59%
    16:00 +36°C° 1 mm 5 mps 745 mmHg 62%
    17:00 +35°C° 1 mm 5 mps 745 mmHg 65%
    18:00 +34°C° 1 mm 5 mps 745 mmHg 68%
    19:00 +33°C° 1.5 mm 5 mps 746 mmHg 72%
    20:00 +33°C° 1.5 mm 5 mps 746 mmHg 76%
    21:00 +32°C° 1.5 mm 5 mps 747 mmHg 80%
    22:00 +32°C° 2.3 mm 4 mps 747 mmHg 81%
    23:00 +30°C° 2.3 mm 4 mps 747 mmHg 82%

    24 July, Tuesday

    Time Temperature Precipitation Wind Pressure Humidity
    00:00 +30°C° 2.3 mm 4 mps 747 mmHg 83%
    01:00 +30°C° 2.2 mm 3 mps 747 mmHg 84%
    02:00 +30°C° 2.2 mm 3 mps 746 mmHg 84%
    03:00 +30°C° 2.2 mm 3 mps 746 mmHg 85%
    04:00 +30°C° 1.5 mm 2 mps 746 mmHg 85%
    05:00 +29°C° 1.5 mm 2 mps 746 mmHg 86%
    06:00 +29°C° 1.5 mm 2 mps 747 mmHg 86%
    07:00 +30°C° 1.6 mm 2 mps 747 mmHg 82%
    08:00 +31°C° 1.6 mm 3 mps 747 mmHg 78%
    09:00 +33°C° 1.6 mm 3 mps 748 mmHg 75%
    10:00 +33°C° 1.4 mm 3 mps 748 mmHg 73%
    11:00 +34°C° 1.4 mm 3 mps 748 mmHg 71%
    12:00 +34°C° 1.4 mm 3 mps 747 mmHg 69%
    13:00 +34°C° 1.3 mm 3 mps 747 mmHg 69%
    14:00 +34°C° 1.3 mm 3 mps 747 mmHg 69%
    15:00 +34°C° 1.3 mm 3 mps 746 mmHg 69%
    16:00 +34°C° 2.3 mm 3 mps 746 mmHg 72%
    17:00 +33°C° 2.3 mm 3 mps 746 mmHg 76%
    18:00 +33°C° 2.3 mm 3 mps 746 mmHg 79%
    19:00 +31°C° 1.9 mm 3 mps 747 mmHg 80%
    20:00 +31°C° 1.9 mm 3 mps 748 mmHg 82%
    21:00 +31°C° 1.9 mm 3 mps 748 mmHg 83%
    22:00 +30°C° 0.9 mm 2 mps 748 mmHg 84%
    23:00 +30°C° 0.9 mm 2 mps 748 mmHg 85%

    25 July, Wednesday

    Time Temperature Precipitation Wind Pressure Humidity
    00:00 +30°C° 0.9 mm 2 mps 748 mmHg 86%
    01:00 +30°C° 2 mm 2 mps 747 mmHg 87%
    02:00 +30°C° 2 mm 2 mps 747 mmHg 87%
    03:00 +29°C° 2 mm 2 mps 746 mmHg 87%
    04:00 +29°C° 0.8 mm 2 mps 746 mmHg 88%
    05:00 +29°C° 0.8 mm 2 mps 747 mmHg 88%
    06:00 +29°C° 0.8 mm 2 mps 747 mmHg 88%
    07:00 +30°C° 0.3 mm 2 mps 747 mmHg 86%
    08:00 +30°C° 0.3 mm 2 mps 747 mmHg 83%
    09:00 +31°C° 0.3 mm 3 mps 748 mmHg 80%
    10:00 +31°C° 1.6 mm 3 mps 747 mmHg 78%
    11:00 +33°C° 1.6 mm 3 mps 747 mmHg 76%
    12:00 +34°C° 1.6 mm 3 mps 747 mmHg 74%
    13:00 +34°C° 1.7 mm 3 mps 746 mmHg 75%
    14:00 +34°C° 1.7 mm 3 mps 746 mmHg 75%
    15:00 +33°C° 1.7 mm 3 mps 745 mmHg 75%
    16:00 +33°C° 0.1 mm 3 mps 745 mmHg 77%
    17:00 +33°C° 0.1 mm 3 mps 745 mmHg 78%
    18:00 +32°C° 0.1 mm 2 mps 745 mmHg 79%
    19:00 +31°C° 0.4 mm 2 mps 746 mmHg 81%
    20:00 +31°C° 0.4 mm 2 mps 746 mmHg 84%
    21:00 +30°C° 0.4 mm 2 mps 747 mmHg 86%
    22:00 +30°C° 0.7 mm 2 mps 746 mmHg 86%
    23:00 +30°C° 0.7 mm 2 mps 746 mmHg 86%
    Show more